Weather History for KROW - November, 2012

Change the Weather History Date:

Tuesday, November 6, 2012

  Actual Average Record
Temperature  
Mean Temperature 59 °F 53 °F  
Max Temperature 78 °F 68 °F 94 °F (1894)
Min Temperature 40 °F 38 °F 20 °F (1959)
Degree Days  
Heating Degree Days 6 12  
Month to date heating degree days 36 66  
Since 1 July heating degree days 163 240  
Cooling Degree Days 0 0  
Month to date cooling degree days 0 0  
Year to date cooling degree days 2356 1788  
Growing Degree Days 8 (Base 50)    
Moisture  
Dew Point 26 °F    
Average Humidity 35    
Maximum Humidity 54    
Minimum Humidity 15    
Precipitation  
Precipitation 0.00 in 0.02 in 0.21 in (1946)
Month to date precipitation 0.00 0.16  
Year to date precipitation 6.05 11.85  
Sea Level Pressure  
Sea Level Pressure 30.07 in    
Wind  
Wind Speed 2 mph (North)    
Max Wind Speed 9 mph    
Max Gust Speed 12 mph    
Visibility 10 miles    
Events      
T = Trace of Precipitation, MM = Missing Value Source: NWS Daily Summary

Daily Weather History Graph

Daily Weather History Graph

Search for Another Location

Airport or City:

Trip Planner

Search our weather history database for the weather conditions in past years. The results will help you decide how hot, cold, wet, or windy it might be!

Date:

Astronomy

Nov. 06, 2012 Rise Set
Actual Time 6:21 AM MST 5:01 PM MST
Civil Twilight 5:55 AM MST 5:27 PM MST
Nautical Twilight 5:26 AM MST 5:57 PM MST
Astronomical Twilight 4:56 AM MST 6:26 PM MST
Moon 11:39 PM MST (11/6) 12:17 PM MST (11/6)
Length of Visible Light 11h 31m
Length of Day
10h 40m
Waning Gibbous, 52% of the Moon is Illuminated
Nov 6
Waning Gibbous
Nov 6
Last Quarter
Nov 13
New
Nov 20
First Quarter
Nov 28
Full

Hourly Weather History & Observations

Time (MST) Temp. Windchill Dew Point Humidity Pressure Visibility Wind Dir Wind Speed Gust Speed Precip Events Conditions
12:51 AM 45.0 °F 43.5 °F 24.1 °F 44% 30.08 in 10.0 mi East 3.5 mph - N/A   Clear
1:51 AM 46.0 °F - 24.1 °F 42% 30.06 in 10.0 mi Calm Calm - N/A   Clear
2:51 AM 44.1 °F - 25.0 °F 47% 30.05 in 10.0 mi Calm Calm - N/A   Clear
3:51 AM 42.1 °F 39.2 °F 25.0 °F 51% 30.07 in 10.0 mi West 4.6 mph - N/A   Clear
4:51 AM 39.9 °F - 25.0 °F 55% 30.09 in 10.0 mi Calm Calm - N/A   Clear
5:51 AM 42.1 °F 40.2 °F 25.0 °F 51% 30.11 in 10.0 mi NNW 3.5 mph - N/A   Clear
6:51 AM 43.0 °F 41.3 °F 24.1 °F 47% 30.12 in 10.0 mi North 3.5 mph - N/A   Clear
7:51 AM 46.9 °F - 27.0 °F 46% 30.15 in 10.0 mi North 5.8 mph - N/A   Clear
8:51 AM 55.0 °F - 28.0 °F 35% 30.14 in 10.0 mi NNE 4.6 mph - N/A   Clear
9:51 AM 62.1 °F - 28.0 °F 28% 30.12 in 10.0 mi NE 5.8 mph - N/A   Clear
10:51 AM 68.0 °F - 28.0 °F 22% 30.10 in 10.0 mi NNE 6.9 mph - N/A   Clear
11:51 AM 68.0 °F - 26.1 °F 21% 30.09 in 10.0 mi Calm Calm - N/A   Clear
12:51 PM 72.0 °F - 27.0 °F 19% 30.05 in 10.0 mi Variable 3.5 mph - N/A   Clear
1:51 PM 75.9 °F - 27.0 °F 16% 30.02 in 10.0 mi Calm Calm - N/A   Clear
2:51 PM 78.1 °F - 27.0 °F 15% 30.01 in 10.0 mi Calm Calm - N/A   Clear
3:51 PM 78.1 °F - 27.0 °F 15% 30.01 in 10.0 mi Calm Calm - N/A   Clear
4:51 PM 71.1 °F - 28.9 °F 21% 30.03 in 10.0 mi ENE 3.5 mph - N/A   Clear
5:51 PM 63.0 °F - 27.0 °F 26% 30.05 in 10.0 mi NE 3.5 mph - N/A   Clear
6:51 PM 57.0 °F - 25.0 °F 29% 30.08 in 10.0 mi Calm Calm - N/A   Clear
7:51 PM 57.0 °F - 28.0 °F 33% 30.08 in 10.0 mi West 4.6 mph - N/A   Clear
8:51 PM 54.0 °F - 27.0 °F 35% 30.08 in 10.0 mi WSW 4.6 mph - N/A   Clear
9:51 PM 55.0 °F - 25.0 °F 31% 30.07 in 10.0 mi Calm Calm - N/A   Clear
10:51 PM 51.1 °F - 25.0 °F 36% 30.07 in 10.0 mi Calm Calm - N/A   Clear
11:51 PM 48.0 °F - 26.1 °F 42% 30.08 in 10.0 mi Calm Calm - N/A   Clear